Погода в Фердене

Германия     52°55′29″N   9°13′40″E
темп.,
°C
ветер,
м/с
пор.,
м/с
влажн.,
%
обл.,
%
осадки,
мм/ч
давл.,
гПа
погр.,
м
22 октября, пт
пт2223:00+5зюз714885 0.0 1007454
02:00+6зюз71679100 0.0 1009642
05:00+7зюз8178199 0.0 1008841
08:00+7зюз11197555 0.0 10071207
11:00+9зюз112077100 0.1 10061627
14:00+10зсз917827 3.8 10081760
17:00+8зсз8157194 0.6 10111321
20:00+6з6137662 0.7 1015531
23 октября, сб
сб2323:00+6з6138017 0.0 1018344
02:00+5зюз5138599 0.0 1019291
05:00+5зюз6128499 0.1 1021269
08:00+5з5128691 0.2 1022255
11:00+9з497770 0.2 1024351
14:00+11зсз4666100 0.3 10261013
17:00+10з4676100 0.1 1027307
20:00+7зюз228799 0.1 102823
24 октября, вс
вс2423:00+5ююз33875 0.0 102929
02:00+4ю348894 0.0 102847
05:00+3ююв3487100 0.0 102858
08:00+3ююв358798 0.0 102786
11:00+8ююв4768100 0.0 1027292
14:00+11ююв575539 0.0 1025621
17:00+10ююв376599 0.0 1024203
20:00+6ююв49760 0.0 1023142
25 октября, пн
пн2523:00+5ю37784 0.0 1022109
02:00+4ю37830 0.0 1021106
05:00+3ююз37850 0.0 1020106
08:00+3ююз38919 0.0 1020129
11:00+9юз597288 0.0 1020324
14:00+12юз5762100 0.0 1020582
17:00+11ююз4871100 0.0 1019260
20:00+10юз41174100 0.0 1020385
26 октября, вт
вт2623:00+7юз398658 0.0 1020182
02:00+6юз411950 0.0 1021212
05:00+6ююз411965 0.0 1020228
08:00+6юз4119868 0.0 1021258
11:00+10юз61188100 0.0 1021421
14:00+14юз71175100 0.0 1020858
17:00+12юз61280100 0.0 1020698
20:00+12юз61389100 1.1 1020629